Regional Weather Roundup
Issued by NWS

Home | Current Version | Previous Version | Graphics & Text | Print | Product List | Glossary On
Versions: 1 2 3 4 5 6 7 8 9 10 11 12 13 14 15 16 17 18 19 20 21 22 23 24 25 26 27 28 29 30 31 32 33 34 35 36 37 38 39 40 41 42 43 44 45 46 47 48 49 50
000
ASUS43 KBIS 182220
RWRND

NORTH DAKOTA REGIONAL WEATHER ROUNDUP
NATIONAL WEATHER SERVICE BISMARCK ND
500 PM CDT FRI APR 18 2014

NOTE: "FAIR" INDICATES FEW OR NO CLOUDS BELOW 12,000 FEET WITH NO
SIGNIFICANT WEATHER AND/OR OBSTRUCTIONS TO VISIBILITY.


NDZ001>003-009>011-017-182300-
NORTHWEST NORTH DAKOTA

CITY           SKY/WX    TMP DP  RH WIND       PRES   REMARKS
WILLISTON      CLOUDY    57  34  41 S16G23    29.68R
MINOT          PTSUNNY   53  31  42 SE28G37   29.77F
MINOT AFB      PTSUNNY   53  31  43 SE32G39   29.78F
$$

NDZ018>021-031>035-040>046-182300-
SOUTHWEST NORTH DAKOTA

CITY           SKY/WX    TMP DP  RH WIND       PRES   REMARKS
BISMARCK       CLOUDY    63  38  39 SE30G38   29.73F
DICKINSON      CLOUDY    63  36  36 SE25G36   29.62F
GARRISON         N/A     55  35  47 SE23G33   29.73F
HETTINGER ARPT PTSUNNY   63  39  41 SE17G28   29.65F
$$

NDZ004>008-012>016-024-026-027-054-182300-
NORTHEAST NORTH DAKOTA

CITY           SKY/WX    TMP DP  RH WIND       PRES   REMARKS
GRAND FORKS    CLOUDY    50  28  42 SE26G36   30.06F
GRND FRKS AFB  CLOUDY    51  28  41 SE25G35   30.05F
DEVILS LAKE    CLOUDY    46  28  49 SE23G31   29.93F
$$

NDZ022-023-025-028>030-036>039-047>053-182300-
SOUTHEAST NORTH DAKOTA

CITY           SKY/WX    TMP DP  RH WIND       PRES   REMARKS
FARGO          MOSUNNY   51  29  42 SE26G37   30.06F
JAMESTOWN      CLOUDY    49  32  52 SE28G46   29.90F
$$




USA.gov is the U.S. government's official web portal to all federal, state and local government web resources and services.